www.pogodaiklimat.ru

Погода и климат >> Архив погоды >> Франция >> Ла-Рошель аэропорт


ПОГОДА в Ла-Рошель аэропорту

  • Прогноз погоды в Ла-Рошель аэропорту
  • Монитор погоды в Ла-Рошель аэропорту

АРХИВ ПОГОДЫ в Ла-Рошель аэропорту

Время (UTC), дата Ветер
(напр.,м/с)
 
Видим.   Явления Облачность Т
(С)
Тd
(С)
f
(%)
Тe
(С)
Тes
(С)
Комфортность P
(гПа)
Po
(гПа)
Тmin
(С)
Tmax
(С)
R
(мм)
R24
(мм)
S
(см)
22 11.06 ЮЗ 2 50 км 10/9 360 м
[]
+12.4 +10.6 89 +12 +12 1008.8 1006.6 0.2
23 11.06 ЮЗ 2 55 км 10/9 450 м
[]
+12.7 +11.1 90 +12 +12 1008.3 1006.1 1
00 12.06 З 2
{6}
55 км 10/10 300 м
[]
+13.0 +11.1 88 +13 +13 1007.8 1005.6 2 0
01 12.06 З 1 60 км н/о +11.8 +9.7 87 +12 +12 1007.4 1005.2
02 12.06 В 2 16 км 8/1 540 м
[]
+10.8 +10.2 96 +10 +10 1007.0 1004.8
03 12.06 ЮВ 1
{4}
22 км 10/10 600 м
[]
+11.5 +11.0 97 +11 +11 1006.7 1004.5 0.0 0
04 12.06 ЮВ 2 23 км 10/10 1500 м
[]
+11.7 +11.2 97 +11 +11 1006.7 1004.5 0.2
05 12.06 ЮВ 1 17 км 10/10 1500 м
[]
+11.7 +11.2 97 +12 +12 1006.8 1004.6 0.0
06 12.06 С 2
{7}
18 км 10/10 100 м
[]
+11.9 +11.4 97 +11 +11 1007.4 1005.2 +10.5 +13.0 2 0
07 12.06 С 2 40 км 8/8 240 м
[]
+12.3 +11.5 95 +12 +12 1007.9 1005.7
08 12.06 СЗ 2 35 км 8/8 420 м
[]
+13.5 +10.8 84 +13 +14 1008.2 1006.1
09 12.06 З 3
{8}
60 км 10/10 300 м
[]
+13.7 +10.9 83 +13 +13 1008.7 1006.6 0
10 12.06 З 3 19 км н/о +15.3 +10.9 75 +15 +15 1009.4 1007.3
11 12.06 СЗ 3 35 км н/о +16.0 +10.1 68 +16 +16 1010.0 1007.9
12 12.06 З 4
{11}
29 км 9/9 600 м
[]
+16.7 +11.0 69 +16 +18 1010.7 1008.6 0
13 12.06 З 4 5000 м 9/9 600 м
[]
+16.5 +9.9 65 +16 +17 1010.8 1008.7
14 12.06 З 4 5000 м 8/4 700 м
[]
+17.9 +11.0 64 +18 +23 1011.4 1009.3
15 12.06 З 4
{12}
7000 м 8/8 600 м
[]
+17.1 +10.7 66 +17 +19 1012.0 1009.9 0
16 12.06 З 4 8000 м 9/9 600 м
[]
+16.4 +10.9 70 +16 +16 1012.2 1010.1
17 12.06 З 5 10 км н/о +16.7 +10.3 66 +16 +16 1012.1 1010.0
18 12.06 З 3
{12}
22 км 10/10 600 м
[]
+15.6 +10.4 71 +15 +16 1012.5 1010.4 +11.8 +18.1 0
19 12.06 ЮЗ 3 40 км 8/6 630 м
[]
+15.2 +10.4 73 +15 +15 1012.5 1010.4
20 12.06 ЮЗ 3 60 км н/о +14.4 +9.8 74 +13 +13 1012.8 1010.6
21 12.06 ЮЗ 3
{9}
60 км н/о +14.4 +10.2 76 +14 +14 1013.2 1011.0 0
22 12.06 ЮЗ 3 60 км 10/10 600 м
[]
+14.6 +10.6 77 +14 +14 1013.1 1010.9
23 12.06 ЮЗ 3 55 км 10/1 600 м
[]
+14.4 +10.4 77 +13 +13 1013.0 1010.8 0.0
00 13.06 ЮЗ 6
{10}
60 км 10/10 300 м
[]
+14.6 +11.0 79 +13 +13 1012.7 1010.6 0.0 0
01 13.06 ЮЗ 3 60 км 10/9 540 м
[]
+14.4 +11.0 80 +13 +13 1012.6 1010.4
02 13.06 ЮЗ 3 60 км 10/9 630 м
[]
+14.2 +9.8 75 +13 +13 1012.2 1010.0
03 13.06 ЮЗ 3
{9}
60 км 10/10 600 м
[]
+14.1 +10.3 78 +13 +13 1012.0 1009.8 0
04 13.06 ЮЗ 2 60 км 10/6 630 м
[]
+14.0 +10.2 78 +13 +13 1012.1 1009.9
05 13.06 ЮЗ 3 60 км 10/10 570 м
[]
+14.3 +10.5 78 +14 +14 1012.5 1010.3
06 13.06 ЮЗ 2
{9}
55 км 10/10 300 м
[]
+14.5 +10.7 78 +14 +14 1012.3 1010.2 +13.9 +16.2 0.0 0
07 13.06 ЮЗ 2 50 км 10/1 1140 м
[]
+15.5 +10.5 72 +15 +17 1012.5 1010.4
08 13.06 ЮЗ 2 50 км 10/3 660 м
[]
+15.4 +10.6 73 +15 +18 1013.0 1010.9
09 13.06 ЮЗ 3
{8}
60 км 10/10 600 м
[]
+16.3 +11.2 72 +16 +17 1013.2 1011.1 0.2 0
10 13.06 ЮЗ 3 45 км 9/9 630 м
[]
+16.6 +11.3 71 +17 +18 1013.3 1011.2
11 13.06 З 3 19 км 9/8 720 м
[]
+17.4 +10.7 65 +18 +20 1013.0 1010.9
12 13.06 З 2
{8}
40 км н/о +18.0 +9.9 59 +19 +19 1013.0 1010.9 0
13 13.06 З 2 27 км н/о +18.4 +10.7 61 +19 +19 1012.9 1010.8
14 13.06 З 2 24 км н/о +18.4 +10.2 59 +19 +19 1012.6 1010.5
15 13.06 СЗ 3
{7}
20 км н/о +17.8 +11.1 65 +18 +18 1012.6 1010.5 0
16 13.06 СЗ 3 17 км н/о +17.9 +11.5 66 +18 +18 1012.7 1010.6
17 13.06 СЗ 4 14 км н/о +17.0 +11.0 68 +17 +17 1012.3 1010.2
18 13.06 СЗ 3
{9}
12 км н/о +16.4 +10.7 69 +16 +16 1012.2 1010.1 +14.5 +18.9 0
19 13.06 СЗ 3 15 км н/о +15.6 +10.6 72 +15 +15 1011.7 1009.6
20 13.06 СЗ 3 55 км н/о +14.9 +11.3 79 +14 +14 1012.6 1010.5
21 13.06 СЗ 2
{7}
60 км 9/0
[]
+15.4 +10.6 73 +15 +15 1013.9 1011.8 0
22 13.06 СЗ 2 55 км 10/1 1260 м
[]
+14.2 +11.5 84 +14 +14 1013.6 1011.4 2
23 13.06 СЗ 2 60 км 10/10
[]
+14.4 +11.7 84 +14 +14 1013.6 1011.4
00 14.06 СЗ 2
{6}
60 км 9/0
[]
+14.1 +11.1 82 +14 +14 1013.9 1011.7 2
01 14.06 СЗ 3 60 км 10/10 2000 м
[]
+14.1 +11.1 82 +13 +13 1013.7 1011.5
02 14.06 СЗ 2 60 км 10/1 500 м
[]
+13.8 +11.0 83 +13 +13 1013.7 1011.5
03 14.06 С 2
{6}
60 км н/о +12.3 +10.2 87 +12 +12 1013.6 1011.4 0
04 14.06 С 2 60 км н/о +11.6 +10.2 91 +11 +11 1014.0 1011.8
05 14.06 В 1 45 км н/о +10.9 +9.7 92 +10 +10 1014.1 1011.9
06 14.06 СВ 1
{3}
45 км н/о +14.0 +11.5 85 +14 +14 1014.1 1011.9 +10.6 +16.3 2 0
07 14.06 С 1 55 км н/о +15.4 +11.0 75 +16 +16 1014.3 1012.2
08 14.06 СЗ 2 35 км н/о +15.8 +11.2 74 +16 +16 1014.4 1012.3
09 14.06 СЗ 2
{6}
50 км н/о +16.6 +11.3 71 +17 +17 1014.3 1012.2 0
10 14.06 СЗ 2 50 км н/о +17.4 +11.0 66 +18 +18 1014.4 1012.3
11 14.06 СЗ 2 40 км 9/9 1440 м
[]
+17.8 +9.2 57 +19 +20 1014.5 1012.4
12 14.06 З 2
{6}
50 км 10/10 1500 м
[]
+18.7 +10.8 60 +20 +20 1014.1 1012.0 0
13 14.06 СЗ 3 40 км н/о +18.2 +11.0 63 +19 +19 1013.4 1011.3
14 14.06 СЗ 4 30 км 9/9 1500 м
[]
+18.8 +11.8 64 +20 +21 1013.3 1011.2
15 14.06 СЗ 5
{11}
24 км н/о +17.9 +11.5 66 +18 +18 1012.7 1010.6 0
16 14.06 СЗ 4 23 км 9/9
[]
+17.5 +10.8 65 +17 +18 1012.8 1010.7
17 14.06 СЗ 4 22 км н/о +17.0 +11.0 68 +17 +17 1013.0 1010.9
18 14.06 СЗ 4
{11}
35 км н/о +16.4 +11.3 72 +16 +16 1013.5 1011.4 +14.0 +19.2 0
19 14.06 СЗ 4 30 км н/о +15.8 +10.5 71 +15 +15 1013.9 1011.8
20 14.06 СЗ 4 60 км 9/9 1500 м
[]
+15.6 +11.0 74 +15 +15 1014.3 1012.2
21 14.06 СЗ 4
{11}
60 км 8/8 1500 м
[]
+15.1 +10.9 76 +14 +14 1015.3 1013.1 0
22 14.06 СЗ 3 60 км 8/8 1500 м
[]
+15.0 +11.0 77 +14 +14 1015.6 1013.4
23 14.06 СЗ 3 60 км н/о +14.5 +10.3 76 +14 +14 1016.0 1013.8
00 15.06 З 2
{8}
60 км н/о +13.9 +10.7 81 +13 +13 1016.2 1014.0 0
01 15.06 З 2 60 км 8/8
[]
+13.8 +10.8 82 +13 +13 1016.5 1014.3
02 15.06 З 2 60 км 10/10
[]
+14.3 +10.9 80 +14 +14 1016.7 1014.5
03 15.06 З 2
{7}
60 км 9/0
[]
+14.6 +10.6 77 +14 +14 1016.5 1014.3 0
04 15.06 З 3 60 км н/о +14.3 +10.9 80 +14 +14 1016.8 1014.6
05 15.06 З 2 55 км н/о +14.3 +10.1 76 +14 +14 1017.2 1015.0
06 15.06 З 3
{8}
27 км н/о +15.7 +10.9 73 +15 +15 1017.3 1015.1 +13.5 +16.5 0
07 15.06 З 3 25 км 8/3 660 м
[]
+16.4 +11.1 71 +16 +18 1018.0 1015.9
08 15.06 З 3 29 км 10/10 630 м
[]
+16.6 +11.5 72 +16 +16 1018.6 1016.5
09 15.06 ЮЗ 3
{10}
27 км 8/8 600 м
[]
+18.2 +12.2 68 +19 +20 1019.0 1016.9 0
10 15.06 З 4 21 км н/о +18.3 +11.8 66 +19 +19 1019.2 1017.1
11 15.06 ЮЗ 4 17 км 9/9 720 м
[]
+18.9 +11.5 62 +20 +21 1019.6 1017.5
12 15.06 ЮЗ 3
{11}
15 км н/о +18.8 +11.4 62 +20 +20 1019.9 1017.8 0
13 15.06 ЮЗ 4 13 км 8/8 750 м
[]
+18.4 +11.5 64 +19 +21 1020.3 1018.2
14 15.06 ЮЗ 4 12 км 9/9 700 м
[]
+18.3 +11.6 65 +18 +19 1020.5 1018.4
15 15.06 З 4
{12}
16 км 9/9 600 м
[]
+17.9 +12.3 70 +18 +19 1020.8 1018.7 0
16 15.06 З 4 15 км н/о +18.4 +11.5 64 +19 +19 1020.9 1018.8
17 15.06 З 3 17 км н/о +17.8 +11.4 66 +18 +18 1021.1 1019.0
18 15.06 З 3
{10}
14 км н/о +17.2 +11.0 67 +17 +17 1021.3 1019.2 +15.7 +19.6 0
19 15.06 З 3 19 км н/о +16.4 +11.8 74 +16 +16 1021.5 1019.3
20 15.06 З 3 35 км н/о +15.6 +12.0 79 +15 +15 1021.7 1019.5
21 15.06 З 2
{7}
35 км н/о +15.4 +12.0 80 +15 +15 1022.3 1020.1 0
22 15.06 ЮЗ 2 30 км н/о +15.3 +11.9 80 +15 +15 1022.4 1020.2
23 15.06 ЮЗ 2 30 км н/о +15.1 +11.9 81 +15 +15 1022.5 1020.3
00 16.06 ЮЗ 2
{8}
40 км н/о +15.0 +12.1 83 +15 +15 1022.4 1020.2 0
01 16.06 ЮЗ 3 30 км н/о +15.0 +12.1 83 +14 +14 1022.1 1019.9
02 16.06 З 3 35 км 9/9 540 м
[]
+15.2 +11.6 79 +15 +15 1022.0 1019.8
03 16.06 З 2
{9}
35 км н/о +14.9 +11.5 80 +15 +15 1021.8 1019.6 0
04 16.06 З 2 35 км н/о +14.4 +11.5 83 +14 +14 1021.8 1019.6
05 16.06 З 2 28 км н/о +14.9 +12.0 83 +15 +15 1021.9 1019.7
06 16.06 З 2
{6}
24 км н/о +16.0 +12.4 79 +16 +16 1022.2 1020.0 +14.4 +17.4 0
07 16.06 З 2 30 км н/о +16.7 +12.0 74 +17 +17 1022.7 1020.5
08 16.06 ЮЗ 2 45 км н/о +17.4 +11.9 70 +18 +18 1023.0 1020.9
09 16.06 З 1
{6}
19 км н/о +18.0 +11.3 65 +19 +19 1022.9 1020.8 0
10 16.06 ЮЗ 1 19 км н/о +19.4 +11.2 59 +22 +22 комфорт 1022.7 1020.6
11 16.06 ЮЗ 2 30 км н/о +19.7 +10.4 55 +22 +22 комфорт 1022.6 1020.5
12 16.06 ЮЗ 2
{7}
18 км н/о +20.3 +11.2 56 +23 +23 комфорт 1022.4 1020.3 0
13 16.06 ЮЗ 2 22 км н/о +20.0 +12.0 60 +22 +22 комфорт 1022.1 1020.0
14 16.06 СЗ 2 22 км н/о +20.0 +12.0 60 +22 +22 комфорт 1021.7 1019.6
15 16.06 СЗ 3
{8}
19 км н/о +19.4 +11.7 61 +21 +21 комфорт 1021.3 1019.2 0
16 16.06 СЗ 3 17 км н/о +19.7 +12.7 64 +22 +22 комфорт 1021.1 1019.0
17 16.06 СЗ 3 16 км н/о +19.2 +11.5 61 +21 +21 комфорт 1020.7 1018.6
18 16.06 СЗ 2
{7}
17 км н/о +19.0 +11.8 63 +20 +20 1020.5 1018.4 +15.9 +20.8 0
19 16.06 СЗ 3 20 км н/о +18.0 +10.8 63 +18 +18 1020.3 1018.2
20 16.06 СЗ 2 45 км н/о +16.7 +12.4 76 +17 +17 1020.2 1018.1
21 16.06 С 2
{7}
45 км н/о +16.8 +12.7 77 +17 +17 1020.5 1018.4 0
22 16.06 С 2 55 км н/о +16.0 +11.6 75 +16 +16 1020.5 1018.3
23 16.06 С 2 45 км н/о +15.1 +11.7 80 +15 +15 1020.3 1018.1
00 17.06 СВ 2
{5}
35 км н/о +13.6 +10.9 84 +13 +13 1020.1 1017.9 0
01 17.06 СВ 2 35 км н/о +13.3 +10.7 84 +13 +13 1019.9 1017.7
02 17.06 СВ 2 35 км н/о +13.1 +10.3 83 +12 +12 1019.5 1017.3
03 17.06 СВ 1
{6}
35 км н/о +12.1 +10.2 88 +12 +12 1019.4 1017.2 0
04 17.06 СВ 2 29 км н/о +12.0 +10.4 90 +11 +11 1019.2 1017.0
05 17.06 СВ 2 22 км н/о +12.8 +10.3 85 +12 +12 1019.1 1016.9
06 17.06 СВ 3
{8}
26 км н/о +14.4 +10.8 79 +14 +14 1019.0 1016.8 +11.9 +19.1 0
07 17.06 СВ 3 29 км н/о +17.9 +12.3 70 +18 +18 1018.6 1016.5
08 17.06 В 3 25 км н/о +20.6 +13.1 62 +23 +23 комфорт 1018.3 1016.2
09 17.06 В 3
{8}
23 км н/о +23.1 +13.8 56 +27 +27 душно 1017.9 1015.8 0
10 17.06 В 2 23 км н/о +25.2 +13.1 47 +27 +27 жарко 1017.6 1015.5
11 17.06 В 2 25 км н/о +26.1 +13.2 45 +28 +28 жарко 1017.0 1014.9
12 17.06 В 2
{8}
28 км н/о +27.5 +11.9 38 +29 +29 жарко 1016.6 1014.5 0
13 17.06 СЗ 2 19 км н/о +26.9 +13.3 43 +29 +29 жарко 1016.1 1014.0
14 17.06 СЗ 2 26 км н/о +27.6 +12.8 40 +29 +29 жарко 1015.5 1013.4
15 17.06 СЗ 2
{6}
19 км н/о +27.9 +13.0 40 +30 +30 жарко 1014.7 1012.6 0
16 17.06 СЗ 5
{7}
22 км н/о +26.5 +14.9 49 +29 +29 жарко 1014.4 1012.3
17 17.06 СЗ 2 24 км н/о +24.8 +15.1 55 +28 +28 жарко 1014.0 1011.9
18 17.06 СЗ 2
{6}
21 км н/о +23.5 +14.5 57 +26 +26 жарко 1013.8 1011.7 +14.4 +28.3 0
19 17.06 З 1 40 км н/о +22.6 +15.7 65 +27 +27 душно 1013.6 1011.5
20 17.06 С 1 45 км н/о +20.6 +16.6 78 +25 +25 комфорт 1013.3 1011.2
21 17.06 В 2
{4}
60 км н/о +21.4 +12.5 57 +24 +24 комфорт 1013.6 1011.5 0
22 17.06 В 2 60 км 10/10
[]
+21.5 +12.3 56 +24 +24 комфорт 1013.8 1011.7
23 17.06 В 2 60 км 10/10
[]
+20.8 +12.7 60 +24 +24 комфорт 1013.4 1011.3
00 18.06 В 2
{6}
60 км 10/0
[]
+20.5 +13.2 63 +23 +23 комфорт 1012.9 1010.8 0
01 18.06 В 3 60 км 10/10
[]
+21.1 +13.3 61 +23 +23 комфорт 1012.3 1010.2
02 18.06 В 3 60 км 10/10
[]
+20.5 +13.7 65 +23 +23 комфорт 1011.6 1009.5
03 18.06 В 2
{7}
55 км 10/0
[]
+20.4 +13.8 66 +23 +23 комфорт 1011.5 1009.4 0
04 18.06 ЮВ 2 55 км 10/10
[]
+20.5 +13.9 66 +24 +24 комфорт 1011.6 1009.5
05 18.06 В 1 55 км 10/10 2000 м
[]
+19.8 +14.4 71 +23 +23 комфорт 1011.2 1009.1
06 18.06 ЮВ 3
{9}
55 км 10/0
[]
+20.6 +13.5 64 +24 +24 комфорт 1010.7 1008.6 +19.2 +23.9 0.0 0
07 18.06 В 3 35 км н/о +22.2 +14.3 61 +25 +25 комфорт 1009.9 1007.8
08 18.06 В 4 28 км н/о +25.8 +14.3 49 +28 +28 жарко 1009.5 1007.4
09 18.06 Ю 4
{11}
23 км 9/0
[]
+25.1 +14.8 53 +28 +29 жарко 1010.2 1008.1 0
10 18.06 ЮЗ 3 45 км н/о +24.9 +15.2 55 +28 +28 жарко 1010.0 1007.9
11 18.06 ЮЗ 4 30 км н/о +24.1 +16.1 61 +27 +27 жарко 1010.3 1008.2
12 18.06 ЮЗ 3
{10}
22 км н/о +24.0 +16.5 63 +27 +27 жарко 1010.0 1007.9 0
13 18.06 ЮЗ 3 19 км н/о +24.7 +16.1 59 +28 +28 душно 1009.7 1007.6
14 18.06 ЮЗ 2 19 км н/о +25.7 +17.1 59 +30 +30 душно 1009.1 1007.0
15 18.06 ЮЗ 2
{7}
20 км н/о +26.2 +16.4 55 +30 +30 душно 1008.6 1006.5 0
16 18.06 З 2 19 км н/о +25.1 +16.5 59 +29 +29 душно 1008.8 1006.7
17 18.06 З 2 18 км н/о +24.5 +16.2 60 +28 +28 душно 1008.5 1006.4
18 18.06 З 2
{6}
26 км н/о +22.9 +15.7 64 +27 +27 душно 1008.5 1006.4 +20.4 +27.8 0
19 18.06 СЗ 1 30 км н/о +21.8 +16.7 73 +26 +26 душно 1008.4 1006.3
20 18.06 СЗ 2 9000 м 8/8
[]
+18.3 +16.8 91 +20 +20 1008.4 1006.3
21 18.06 СЗ 2
{6}
8000 м 9/9 100 м
[]
+17.6 +16.6 94 +18 +18 1009.0 1006.9 0
22 18.06 З 2 10 км 10/6 180 м
[]
+17.3 +16.0 92 +18 +18 1009.4 1007.3

 

Местоположение метеостанции Ла-Рошель аэропорт (Франция): широта 46.18 долгота -1.19 высота над уровнем моря 20 м.

В архиве по умолчанию представлена погода в Ла-Рошель аэропорту за последнюю неделю. Архивные данные за месяц целиком и за предыдущие месяцы, начиная с января 2011 года, Вы можете получить, выбрав интересующий диапазон дат из раскрывающегося списка и нажав кнопку "Ввод!".


*Определитесь, кто Вы:
робот инопланетянин человек

Внимание! Время в таблицах - всемирное. Для получения местного времени необходимо прибавить поправку, которая равна 1 ч.

Смотрите также архив погоды в соседних городах и на ближайших метеорологических станциях:

Погода в Ла-Рошеле (Франция) (5 км)
Погода в Шассироне (Франция) (23 км)
Погода в Ла-Рош-сюр-Йоне (Франция) (60 км)
Погода в Ниоре (Франция) (63 км)
Погода в Коньяке (Франция) (88 км)
Погода на Йе (Франция) (105 км)
Погода в Нанте (Франция) (112 км)
Погода в Пуатье (Франция) (123 км)
Погода на Шемулене (Франция) (144 км)
Погода в Сен-Назере (Франция) (147 км)

Пояснения к столбцам:

Ветер - указаны скорость ветра в м/с - средняя за 10 мин, порывы в срок и между сроками (в фигурных скобках) и направление, откуда дует ветер: С - северный, СВ - северо-восточный, В - восточный, ЮВ - юго-восточный, Ю - южный, ЮЗ - юго-западный, З - западный, СЗ - северо-западный.
Видимость - горизонтальная дальность видимости в метрах или километрах. При видимости от 1 до 10 км при отсутствии осадков обычно наблюдается дымка, при ухудшении видимости до 1 км и менее - туман. В сухую погоду видимость может ухудшаться дымом, пылью или мглою.
Явления - указаны атмосферные явления, наблюдавшиеся в срок или в последний час перед сроком; фигурными скобками обозначены явления, наблюдавшиеся между сроками (за 1-3 часа до срока); квадратными скобками обозначены град или гололедные отложения с указанием их диаметра в мм.
Облачность - указаны через наклонную черту общая и нижняя облачность в баллах и высота нижней границы облаков в метрах; квадратными скобками обозначены формы облаков: Ci - перистые, Cs - перисто-слоистые, Cc - перисто-кучевые, Ac - высококучевые, As - высокослоистые, Sc - слоисто-кучевые, Ns - слоисто-дождевые, Cu - кучевые, Cb - кучево-дождевые. Подробнее классификацию облаков см. в Атласе облаков (PDF).
T - Температура воздуха - температура, измеренная на высоте 2 м над землей.
Td - Температура точки росы - температура, при понижении до которой содержащийся в воздухе водяной пар достигнет насыщения.
f - Относительная влажность воздуха - влажноcть воздуха, измеренная на высоте 2 м над землей.
Te - Эффективная температура - температура, которую ощущает одетый по сезону человек в тени. Характеристика душности погоды. При расчете учитывается влияние влажности воздуха и скорости ветра на теплоощущения человека.
Tes - Эффективная температура на солнце - температура, которую ощущает человек, с поправкой на солнечный нагрев. Характеристика знойности погоды. Зависит от высоты солнца над горизонтом, облачности и скорости ветра. Ночью, в пасмурную погоду, а также при ветре 12 м/с и более поправка равна нулю.
P - Атмосферное давление - приведенное к уровню моря атмосферное давление.
Po - Атмосферное давление - измеренное на уровне метеостанции атмосферное давление.
Tmin - Минимальная температура - минимум температуры воздуха на высоте 2 м над землей.
Tmax - Максимальная температура - максимум температуры воздуха на высоте 2 м над землей.
R - Количество осадков - Количество выпавших осадков за период времени, мм. При наведении курсора мыши на число - период времени, за который выпало указанное количество осадков.
R24 - Количество осадков - Количество выпавших осадков за 24 часа, мм.
S - Снежный покров - Высота снежного покрова, см. При наведении курсора мыши на число - состояние снежного покрова и степень покрытия местности в баллах.